User: anonymous
Location: Ostrava
(49.8330°N, 18.2830°E)
Time: 00:55:20
(UTC+02:00)
Language:

Explorer 7 - Orbit

View from above orbital plane
View from above orbital plane
View from above satellite
View from above satellite

Ground track
Ground track

The orbit data is extracted from the following two-line orbital elements,

1 00022U 59009A   14210.27266385  .00001662  00000-0  16287-3 0  9761
2 00022 050.2855 087.7750 0154279 342.5422 017.0254 14.89466689903928
Epoch (UTC): 29 July 2014 06:32:38
Eccentricity: 0.0154279
inclination: 50.2855°
perigee height: 492 km
apogee height: 707 km
right ascension of ascending node: 87.7750°
argument of perigee: 342.5422°
revolutions per day: 14.89466689
mean anomaly at epoch: 17.0254°
orbit number at epoch: 90392

The dashed part of the orbit path shows where the satellite is in the earth's shadow,  

DLR